Grand Junction, CO

11:55 PM MST on November 19, 2019 (GMT -0700)
Walker

Weather History for KGJT - September, 2019

Change the Weather History Date:

Friday, September 13, 2019

  Actual Average Record
Temperature  
Mean Temperature 64 °F 67 °F  
Max Temperature 81 °F 81 °F 95 °F (1990)
Min Temperature 47 °F 53 °F 39 °F (1914)
Degree Days  
Heating Degree Days 1 2  
Month to date heating degree days 10 10  
Since 1 July heating degree days 10 13  
Cooling Degree Days 0 4  
Month to date cooling degree days 118 70  
Year to date cooling degree days 1239 1089  
Growing Degree Days 14 (Base 50)    
Moisture  
Dew Point 32 °F    
Average Humidity 36    
Maximum Humidity 56    
Minimum Humidity 16    
Precipitation  
Precipitation 0.00 in 0.04 in 0.70 in (2013)
Month to date precipitation 0.23 0.49  
Year to date precipitation 7.09 6.34  
Snow  
Snow 0.00 in 0.00 in 0.00 in (2018)
Month to date snowfall 0.0 0.0  
Since 1 July snowfall 0.0 0.0  
Since 1 September snowfall 0.0 0.0  
Snow Depth 0.00 in    
Sea Level Pressure  
Sea Level Pressure 30.13 in    
Wind  
Wind Speed 7 mph (SE)    
Max Wind Speed 15 mph    
Max Gust Speed 19 mph    
Visibility 10 miles    
Events      
T = Trace of Precipitation, MM = Missing Value Source: NWS Daily Summary

Daily Weather History Graph

Daily Weather History Graph

Search for Another Location

Airport or City:

Astronomy

Sep. 13, 2019 Rise Set
Actual Time 6:53 AM MDT 7:25 PM MDT
Civil Twilight 6:26 AM MDT 7:52 PM MDT
Nautical Twilight 5:54 AM MDT 8:24 PM MDT
Astronomical Twilight 5:22 AM MDT 8:56 PM MDT
Moon 7:40 PM MDT (9/13) 6:14 AM MDT (9/13)
Length of Visible Light 13h 26m
Length of Day
12h 32m
Full, 100% of the Moon is Illuminated
Sep 13
Full
Sep 13
Full
Sep 21
Last Quarter
Sep 28
New
Oct 5
First Quarter

Hourly Weather History & Observations

Time (MDT) Temp. Dew Point Humidity Pressure Visibility Wind Dir Wind Speed Gust Speed Precip Events Conditions
12:53 AM 50.0 °F 33.1 °F 52% 30.17 in 10.0 mi ENE 6.9 mph - N/A   Clear
1:53 AM 53.1 °F 32.0 °F 45% 30.17 in 10.0 mi Calm Calm - N/A   Clear
2:53 AM 53.1 °F 35.1 °F 50% 30.16 in 10.0 mi SSE 6.9 mph - N/A   Clear
3:53 AM 51.1 °F 35.1 °F 54% 30.16 in 10.0 mi SE 6.9 mph - N/A   Clear
4:53 AM 50.0 °F 34.0 °F 54% 30.17 in 10.0 mi SE 8.1 mph - N/A   Clear
5:53 AM 50.0 °F 35.1 °F 57% 30.18 in 10.0 mi ESE 12.7 mph - N/A   Clear
6:53 AM 50.0 °F 34.0 °F 54% 30.19 in 10.0 mi SSE 5.8 mph - N/A   Clear
7:53 AM 52.0 °F 35.1 °F 53% 30.22 in 10.0 mi ESE 10.4 mph - N/A   Clear
8:53 AM 57.0 °F 36.0 °F 45% 30.24 in 10.0 mi SSE 9.2 mph - N/A   Clear
9:53 AM 63.0 °F 36.0 °F 37% 30.24 in 10.0 mi SE 12.7 mph - N/A   Clear
10:53 AM 64.9 °F 34.0 °F 32% 30.22 in 10.0 mi SSE 10.4 mph - N/A   Clear
11:53 AM 69.1 °F 35.1 °F 29% 30.19 in 10.0 mi SSE 4.6 mph - N/A   Clear
12:53 PM 73.9 °F 35.1 °F 24% 30.16 in 10.0 mi ESE 4.6 mph - N/A   Clear
1:53 PM 77.0 °F 33.1 °F 20% 30.12 in 10.0 mi WNW 6.9 mph - N/A   Clear
2:53 PM 79.0 °F 28.0 °F 15% 30.08 in 10.0 mi WNW 9.2 mph - N/A   Clear
3:53 PM 80.1 °F 32.0 °F 17% 30.06 in 10.0 mi West 12.7 mph 18.4 mph N/A   Clear
4:53 PM 80.1 °F 30.0 °F 16% 30.05 in 10.0 mi West 9.2 mph - N/A   Clear
5:53 PM 79.0 °F 28.0 °F 15% 30.04 in 10.0 mi WNW 8.1 mph - N/A   Clear
6:53 PM 78.1 °F 30.0 °F 17% 30.04 in 10.0 mi West 4.6 mph - N/A   Clear
7:53 PM 64.9 °F 30.9 °F 28% 30.07 in 10.0 mi Calm Calm - N/A   Clear
8:53 PM 60.1 °F 27.0 °F 28% 30.09 in 10.0 mi ENE 3.5 mph - N/A   Clear
9:53 PM 57.9 °F 28.0 °F 32% 30.09 in 10.0 mi NE 3.5 mph - N/A   Clear
10:53 PM 55.0 °F 27.0 °F 34% 30.10 in 10.0 mi ENE 6.9 mph - N/A   Clear
11:53 PM 60.1 °F 28.0 °F 30% 30.08 in 10.0 mi East 5.8 mph - N/A   Clear